Weather Roundup
Issued by NWS

Home | Current Version | Previous Version | Text Only | Print | Product List | Glossary On
Versions: 1 2 3 4 5 6 7 8 9 10 11 12 13 14 15 16 17 18 19 20 21 22 23 24 25 26 27 28 29 30 31 32 33 34 35 36 37 38 39 40 41 42 43 44 45 46 47 48 49 50
000
NZUS93 KARX 182110
HRRWXR

CURRENT HOURLY OBSERVATIONS ACROSS
MUCH OF THE UPPER MISSISSIPPI VALLEY
NATIONAL WEATHER SERVICE LA CROSSE WI
400 PM CDT WED OCT 18 2017


...SOUTHEAST MINNESOTA...


CITY           SKY/WX    TMP DP  RH WIND       PRES   REMARKS
ROCHESTER      CLOUDY    70  49  47 W18G26    29.90R
ROCHESTER/MAYO FAIR      70  45  40 W14G26    29.89R
WINONA         MOSUNNY   73  48  40 W9        29.86R
AUSTIN         SUNNY     70  46  43 NW10G21   29.91R
ALBERT LEA     NOT AVBL
DODGE CENTER   CLOUDY    70  41  35 W10G16    29.90S
PRESTON        CLOUDY    71  46  40 SW17G23   29.90R
OWATONNA       SUNNY     72  45  37 W7        29.88F
FARIBAULT      SUNNY     72  41  33 SW8       29.87F
$$

...ELSEWHERE IN MINNESOTA...


CITY           SKY/WX    TMP DP  RH WIND       PRES   REMARKS
MINNEAPOLIS    MOSUNNY   72  40  31 W14       29.83F
INTNL FALLS    SUNNY     60  18  19 W20G32    29.64S
DULUTH         MOSUNNY   64  18  17 W29G37    29.71R
RED WING       SUNNY     72  37  28 W9        29.83F
REDWOOD FALLS  SUNNY     70  27  20 NW14      29.92R
MANKATO        SUNNY     72  37  28 NW10      29.89R
WORTHINGTON    SUNNY     71  34  25 N12       29.96R
FAIRMONT       SUNNY     73  34  23 N10G20    29.91R
$$

...SOUTHWEST WISCONSIN...


CITY           SKY/WX    TMP DP  RH WIND       PRES   REMARKS
LA CROSSE      PTSUNNY   75  47  36 SW17      29.85R
PRAIRIE DU CHI SUNNY     73  43  33 S9        29.90F
BOSCOBEL       SUNNY     76  45  33 S14G23    29.92R
LONE ROCK      SUNNY     72  46  39 SW17G26   29.93R
PLATTEVILLE    SUNNY     72  48  42 S17G23    29.95S
FORT MC COY    MOSUNNY   71  48  44 S14       29.86S
CAMP DOUGLAS   PTSUNNY   73  48  40 SW15G21   29.86F
MAUSTON-NEW LI CLEAR     72  48  42 S12G18    29.87F
VIROQUA        FAIR      70  48  45 S16       29.89F
WIS DELLS      SUNNY     70  44  39 S17       29.91R
$$

...ELSEWHERE IN WISCONSIN...


CITY           SKY/WX    TMP DP  RH WIND       PRES   REMARKS
MILWAUKEE      MOSUNNY   72  43  35 SW28G33   29.97F
MADISON        MOSUNNY   71  44  37 S17G24    29.93F
GREEN BAY      SUNNY     70  49  47 S13G25    29.86F
EAU CLAIRE     MOSUNNY   71  48  43 W13G26    29.82R
BLACK RVR FLS  FAIR      73  43  34 SW8G16    29.83S
MEDFORD        CLOUDY    69  46  44 SW14G24   29.81R
WAUSAU         LGT RAIN  70  46  42 SW16G29   29.78F
WIS RAPIDS     SUNNY     73  49  42 SW15G22   29.85F
MARSHFIELD     MOSUNNY   71  44  37 SW21G30   29.81F
RICE LAKE      SUNNY     68  43  39 SW12G18   29.81F
$$

...NORTHEAST IOWA...


CITY           SKY/WX    TMP DP  RH WIND       PRES   REMARKS
WATERLOO       SUNNY     73  45  36 S16       29.90S
DUBUQUE        SUNNY     70  45  40 SW21G30   29.95S
DECORAH        MOSUNNY   73  46  38 SW9G21    29.88S
MASON CITY     SUNNY     73  48  41 W13       29.92R
CHARLES CITY   PTSUNNY   75  45  33 SW14G20   29.91R
OELWEIN        SUNNY     73  46  38 SW23G29   29.92F
$$

...ELSEWHERE IN IOWA...


CITY           SKY/WX    TMP DP  RH WIND       PRES   REMARKS
DES MOINES     MOSUNNY   75  49  39 S16       29.92S
IOWA CITY      SUNNY     74  47  38 S16       29.98S
FORT DODGE     MOSUNNY   75  50  41 W12       29.91S
MARSHALLTOWN   SUNNY     73  49  42 S15G24    29.91S
CEDAR RAPIDS   SUNNY     73  46  38 S18G26    29.95S
$$

...NORTHERN ILLINOIS...


CITY           SKY/WX    TMP DP  RH WIND       PRES   REMARKS
CHICAGO-OHARE  SUNNY     70  41  34 SW18G28   30.02F
CHICAGO-MIDWAY MOSUNNY   71  41  33 S17G28    30.04F
MOLINE         SUNNY     74  44  34 SW15G23   29.98F
ROCKFORD       MOSUNNY   71  41  33 S16G29    30.00F
PEORIA         SUNNY     71  44  37 SW16G23   30.04F
$$

NOTE: "FAIR" INDICATES FEW OR NO CLOUDS BELOW 12,000 FEET WITH NO
SIGNIFICANT WEATHER AND/OR OBSTRUCTIONS TO VISIBILITY. WIND
SPEEDS ARE IN MILES-PER-HOUR.




USA.gov is the U.S. government's official web portal to all federal, state and local government web resources and services.